This demonstration page uses our WeatherBlox Daily Observations layout. Learn more.

Left ArrowRight Arrow

44.89941, -97.11507

Hourly Observations for September 11, 2018

Temp ( °F °C ) Dew Point ( °F °C ) Humidity (%) Winds ( mph kmh ) Pressure ( in mb ) Visibility ( mi km ) Precip ( " mm )
12:53 am 00:53 Clear 65 18.3 63 17.2 93 93 S 10 17 29.87 1012 10 16 0.00 0.00
1:53 am 01:53 Clear 65 18.3 62 16.7 90 90 SSE 12 19 29.86 1011 10 16 0.00 0.00
2:53 am 02:53 Clear 63 17.2 61 16.1 93 93 SSE 10 17 29.85 1011 10 16 0.00 0.00
3:53 am 03:53 Clear 61 16.1 60 15.6 97 97 S 10 17 29.85 1011 10 16 0.00 0.00
4:53 am 04:53 Clear 60 15.6 59 15 96 96 SSE 12 19 29.83 1010 10 16 0.00 0.00
5:53 am 05:53 Clear 59 15 58 14.4 96 96 SSE 10 17 29.83 1010 10 16 0.00 0.00
6:53 am 06:53 Clear 59 15 59 15 100 100 SSE 10 17 29.82 1010 10 16 0.00 0.00
7:53 am 07:53 Sunny 62 16.7 60 15.6 93 93 SSE 13 20 29.81 1010 10 16 0.00 0.00
8:53 am 08:53 Sunny 65 18.3 61 16.1 87 87 SSE 16 26 29.79 1009 10 16 0.00 0.00
9:53 am 09:53 Sunny with Light Rain 70 21.1 62 16.7 76 76 SSE 18 30 29.78 1008 10 16 0.00 0.03
10:53 am 10:53 Sunny with Light Rain 73 22.8 63 17.2 71 71 S 20 31 29.77 1008 10 16 0.00 0.03
11:53 am 11:53 Sunny with Light Rain 78 25.6 65 18.3 64 64 S 21 33 29.73 1007 10 16 0.00 0.03
12:53 pm 12:53 Sunny 81 27.2 65 18.3 58 58 S 26 43 29.70 1006 10 16 0.00 0.03
1:53 pm 13:53 Sunny 81 27.2 64 17.8 57 57 S 28 44 29.68 1005 10 16 0.00 0.00
2:53 pm 14:53 Sunny 82 27.8 64 17.8 55 55 S 32 52 29.66 1005 10 16 0.00 0.00
3:53 pm 15:53 Sunny 81 27.2 64 17.8 57 57 S 22 35 29.69 1005 10 16 0.00 0.00
4:53 pm 16:53 Sunny 83 28.3 65 18.3 55 55 S 25 41 29.70 1006 10 16 0.00 0.00
5:53 pm 17:53 Sunny 81 27.2 66 18.9 61 61 S 22 35 29.71 1006 10 16 0.00 0.00
6:53 pm 18:53 Sunny 80 26.7 65 18.3 60 60 S 17 28 29.72 1007 10 16 0.00 0.00
7:53 pm 19:53 Clear 77 25 66 18.9 69 69 S 14 22 29.74 1007 10 16 0.00 0.00
8:53 pm 20:53 Clear 75 23.9 65 18.3 71 71 S 15 24 29.77 1008 10 16 0.00 0.00
9:53 pm 21:53 Clear 74 23.3 64 17.8 71 71 SW 14 22 29.80 1009 10 16 0.00 0.00
10:33 pm 22:33 Clear 74 23.3 63 17.2 69 69 WSW 12 19 29.80 1009 10 16 0.00 0.00
10:53 pm 22:53 Clear 72 22.2 63 17.2 73 73 WSW 10 17 29.82 1010 10 16 0.00 0.00
11:53 pm 23:53 Clear 71 21.7 63 17.2 76 76 WSW 6 9 29.84 1010 10 16 0.00 0.00

Powered by AerisWeather